Beidou DW 43

operational
NORAD ID: 43707 Int'l Des: 2018-093 Owner: CNSA Country: CN Constellation: BeiDou
MEOCIRCULAR

关于 Beidou DW 43

正在加载描述...

实时位置

正在加载3D地球...

即将过境

高度历史

Altitude vs Time

uPlot chart will show altitude changes over time

两行轨道根数

1 43707U 18093B 25299.05856935 .00000023 00000-0 00000+0 0 9994
2 43707 54.1745 190.2328 0006881 339.3760 20.6815 1.86230098 47176
Epoch: Oct 26, 2025 • Age: 10 hours

当前状态

高度 21539.3 km
速度 3.78 km/s
星下点 -53.81°S, 94.1°W
发射日期 Nov 18, 2018
运行时间 6.9 years
类型 navigation

技术详情

分类 Payload
质量 1014.00 kg
干质量 850.00 kg
总质量 1014.00 kg
长度 2.20 m
直径 1.70 m
跨度 10.00 m
形状 Box + 2 Pan
制造商 CAST
平台类型 BD-3M/SAR
阶段状态 In Orbit
所有者/国家 CNSA/CN

大型星座

Loading constellations...